Regional Weather Roundup
Issued by NWS

Home | Current Version | Previous Version | Text Only | Print | Product List | Glossary On
Versions: 1 2 3 4 5 6 7 8 9 10 11 12 13 14 15 16 17 18 19 20 21 22 23 24 25 26 27 28 29 30 31 32 33 34 35 36 37 38 39 40 41 42 43 44 45 46 47 48 49 50
816
ASUS44 KLIX 210810
RWRLA
LOUISIANA WEATHER ROUNDUP
NATIONAL WEATHER SERVICE NEW ORLEANS LA
200 AM CST SUN DEC 21 2014

NOTE: "FAIR" INDICATES FEW OR NO CLOUDS BELOW 12,000 FEET WITH NO
      SIGNIFICANT WEATHER AND/OR OBSTRUCTIONS TO VISIBILITY.
      SKY/WX - SKY CONDITION AND SIGNIFICANT WEATHER.
      TMP - AIR TEMPERATURE.    DP   - DEWPOINT TEMPERATURE.
      RH  - RELATIVE HUMIDITY.  PRES - PRESSURE.
      HX  - HEAT INDEX.         WCI  - WIND CHILL INDEX.

*  THESE STATIONS ARE NOT NWS OR FAA STATIONS AND ARE NOT UNDER
   NWS QUALITY CONTROL.

LAZ040-048-061>063-065-066-069-210900-
SOUTHEAST LOUISIANA

CITY           SKY/WX    TMP DP  RH WIND       PRES   REMARKS
N.O. AUDUBON     N/A     54  50  87 MISG        N/A
N.O. INTL ARPT CLOUDY    53  47  79 NE10      30.13F
N.O. LAKEFRONT CLOUDY    54  48  80 E15       30.14F
N.O. DOWNTOWN* CLOUDY    52  45  76 NE6       30.13F
SLIDELL        CLOUDY    52  47  83 N5        30.13F
BATON ROUGE    CLOUDY    46  44  93 N3        30.15F
BOOTHVILLE     CLOUDY    54  53  97 NE9       30.12F FOG
BELLE CHASSE   CLOUDY    53  49  86 NE9       30.12F
BOGALUSA*        N/A     51  45  80 NE3       30.17S
GALLIANO*      CLOUDY    55  51  88 MISG      30.12S
NEW ROADS*     PTSUNNY   42  42  98 NE3       30.16F
GONZALES*      CLOUDY    50  50 100 N3        30.14S
HAMMOND*       NOT AVBL
HOUMA*         CLOUDY    51  49  92 N6        30.12S
PORT FOURCHON* CLOUDY    55  52  88 NE13G20   30.14R

$$

LAZ041-044-053-054-210900-
SOUTHWEST LOUISIANA

CITY           SKY/WX    TMP DP  RH WIND       PRES   REMARKS
LAKE CHARLES   CLEAR     44  42  93 NE6       30.15F
LAFAYETTE      CLOUDY    46  44  93 NE6       30.15F
PATTERSON      CLOUDY    50  46  87 NE7       30.14F
SALT POINT       N/A     54  49  83 VRB3      30.12F
NEW IBERIA     CLOUDY    49  47  93 NE8       30.15F
CHENAULT AIRPK CLEAR     43  42  97 N3        30.16F

$$

LAZ027-028-210900-
CENTRAL LOUISIANA

CITY           SKY/WX    TMP DP  RH WIND       PRES   REMARKS
FORT POLK      CLEAR     42  41  97 VRB3      30.15F
ALEXANDRIA INT CLEAR     39  39 100 CALM      30.15F FOG
ALEXANDRIA     PTCLDY    35  35 100 CALM      30.16F

$$

LAZ001-002-210900-
NORTHWEST LOUISIANA

CITY           SKY/WX    TMP DP  RH WIND       PRES   REMARKS
SHREVEPORT     FOG       36  36 100 CALM      30.17S VSB 1/4
BARKSDALE AFB  NOT AVBL
DTN SHREVEPORT FOG       35  33  92 CALM      30.18F VSB 1/2

$$

LAZ014-016-210900-
NORTHEAST LOUISIANA

CITY           SKY/WX    TMP DP  RH WIND       PRES   REMARKS
MONROE         CLEAR     41  38  89 NE7       30.20F
TALLULAH       CLEAR     40  37  89 N3        30.20F

$$




USA.gov is the U.S. government's official web portal to all federal, state and local government web resources and services.